"Pseudo-MPEC" for P118ckv

Created 2020 Oct 19 14:07:31 UT using Find_Orb

Click here for an explanation of pseudo-MPECs

 
 Astrometry: 
     P118ckv  C2020 10 17'yt%ukB%Q;v]sknNMYf#6-Dg)3:_pA@IoEE:h$k]O0Fw_MV%QG2uF51
     P118ckv  C2020 10 17!SX5m+5^T^*SyLXjc2st2p3`'87NAstrometry$2OWkKc#:!Xx+eF51
     P118ckv  C2020 10 17w1wBud;Iv2\6mtMAx:p/redacted;_5ZH8NIJM/j$tAFo_br6NTLF51
     P118ckv  C2020 10 17A(n2jS!JUny$rg*b^+1CG*click3u8`pA:2!.xkhere;TppINtO7F51
     P118ckv KC2020 10 18.32503702 39 07.85 -24 32 11.8    ~AI8M 20.92GVNEOCPI52
     P118ckv KC2020 10 18.32810602 39 07.24 -24 32 01.4    ~AI8M 20.62GVNEOCPI52
     P118ckv KC2020 10 18.33263102 39 06.29 -24 31 47.2    ~AI8M 21.73GVNEOCPI52
     P118ckv ^C2020 10 18.38807802 38 58.479-24 28 37.62   ~AIKq 21.24GVNEOCP568
     P118ckv ^C2020 10 18.38998802 38 58.096-24 28 31.58   ~AIKq 21.04GVNEOCP568
     P118ckv ^C2020 10 18.39094202 38 57.902-24 28 28.55   ~AIKq 21.02GVNEOCP568
     P118ckv  C2020 10 183XOCLeM`:fF0a:vbOT=]Jg_M;31JiiS.3M:fhZfRAZ)*\28yofTiF51
     P118ckv  C2020 10 18[gEml46Ev#%JklR1xtk'XMmJb@F/(^.O*BeOsC/CaTifor9fgg1IF51
     P118ckv  C2020 10 18y9Is%i@uR3`+=]JGVmVS.0BP/ib2iUOlN.\n)4JqOU42Z[BMku\VF51
     P118ckv  C2020 10 18=^,'HmJ#B=RPy3gK*pZs(:.$By$explanationVpQweDHhfe@pu]F51
     P118ckv bC2020 10 18_hVZa8OI=KIp)YAEvrBaD)\/$,'yigy1w3Liv`gyWpYxo/JlJ@6SL01
     P118ckv bC2020 10 18VWb'V+H/qyCCi_sO'M`w,8mob9?(Or^OP1``3pWgmTV,N_3!Fea8L01
     P118ckv bC2020 10 1820!KO]!v*Qvol\(mo/H%;P?O+e:lWXQ++,858h**%gFr6/@pJJ5SL01

Station data:
(568) Mauna Kea  (N19.826116 W155.472200)  US/Hawaii.
(F51) Pan-STARRS 1, Haleakala  (N20.707235 W156.255910)  US/Hawaii.
   Observers N. Primak, A. Schultz, S. Watters, J. Thiel, T. Goggia. Measurer
   PS1 Science Consortium. 1.8-m Ritchey-Chrétien + CCD.
(I52) Steward Observatory, Mt. Lemmon Station  (N32.442547 W110.788920)
   US/Arizona.  Observers T. A. Pruyne, B. M. Africano, E. J. Christensen, G.
   A. Farneth, D. C. Fuls, A. R. Gibbs, A. D. Grauer, H. Gröller, J. A.
   Johnson, R. A. Kowalski, S. M. Larson, G. J. Leonard, D. Rankin, R. L.
   Seaman, F. C. Shelly. 1.0-m reflector + CCD.
(L01) Višnjan Observatory, Tičan  (N45.290900 E13.749300)  Croatia.
   Observers K. Korlević, E. Pettarin. Measurer E. Pettarin. 1.0-m f/2.9
   reflector + CCD.

Orbital elements:  P118ckv
   Perihelion 2020 Dec 14.867408 +/- 0.188 TT = 20:49:04 (JD 2459198.367408)
Epoch 2020 Oct 18.0 TT = JDT 2459140.5   Earth MOID: 0.0475   Ma: 0.0152
M 327.41829337 +/- 0.45             (J2000 ecliptic)          AutoNEOCP
n   0.56304071 +/- 0.0061           Peri.   52.09739 +/- 0.14
a   1.45247783 +/- 0.0105           Node    36.81113 +/- 0.017
e   0.3504100 +/- 0.00474           Incl.   20.72784 +/- 0.18
P   1.75/639.37d           H 24.1   G  0.15   U  9.3  
q 0.94351496 +/- 0.000353    Q 1.96144070 +/- 0.0212
From 17 observations 2020 Oct. 17-18 (37.4 hr); mean residual 0".21
Residuals in arcseconds: 
201017 F51  .01-  .04-    201018 I52  .32-  .25+    201018 F51  .44+  .28-    
201017 F51  .02-  .14-    201018 568  .04+  .13-    201018 F51  .42-  .15+    
201017 F51  .01-  .06-    201018 568  .05+  .09-    201018 L01  .36-  .30-    
201017 F51  .13-  .11+    201018 568  .02+  .06-    201018 L01  .08+  .14-    
201018 I52  .24+  .19-    201018 F51  .02+  .02-    201018 L01  .16+  .35+    
201018 I52  .29+  .46+    201018 F51  .15-  .05+    

Ephemerides (geocentric):
Date (UTC) HH   RA              Dec         delta   r     elong  mag " sig PA
---- -- -- --  -------------   -----------  ------ ------ -----  --- ---- ---
2020 10 19 14  02 35 12.216   -23 18 20.03  .12607 1.1000 143.7 21.2 .656 177
2020 10 19 15  02 35 03.872   -23 15 42.02  .12578 1.0998 143.8 21.2 .663 178
2020 10 19 16  02 34 55.490   -23 13 03.11  .12548 1.0996 143.8 21.2 .669 178
2020 10 19 17  02 34 47.070   -23 10 23.30  .12519 1.0994 143.9 21.2 .675 178
2020 10 19 18  02 34 38.612   -23 07 42.58  .12489 1.0992 143.9 21.2 .682 179
2020 10 19 19  02 34 30.116   -23 05 00.95  .12459 1.0990 144.0 21.2 .688 179
2020 10 19 20  02 34 21.582   -23 02 18.40  .12430 1.0989 144.0 21.1 .694 179
2020 10 19 21  02 34 13.009   -22 59 34.93  .12400 1.0987 144.1 21.1 .701   0
2020 10 19 22  02 34 04.397   -22 56 50.52  .12371 1.0985 144.1 21.1 .707   0
2020 10 19 23  02 33 55.747   -22 54 05.17  .12341 1.0983 144.2 21.1 .714   0
2020 10 20 00  02 33 47.057   -22 51 18.88  .12312 1.0981 144.2 21.1 .721   1
2020 10 20 01  02 33 38.329   -22 48 31.64  .12282 1.0979 144.3 21.1 .727   1
2020 10 20 02  02 33 29.560   -22 45 43.45  .12253 1.0977 144.4 21.1 .734   2
2020 10 20 03  02 33 20.752   -22 42 54.29  .12223 1.0975 144.4 21.1 .740   2
2020 10 20 04  02 33 11.905   -22 40 04.16  .12194 1.0973 144.5 21.1 .747   2
2020 10 20 05  02 33 03.017   -22 37 13.06  .12165 1.0971 144.5 21.1 .754   3
2020 10 20 06  02 32 54.089   -22 34 20.97  .12135 1.0969 144.6 21.1 .761   3
2020 10 20 07  02 32 45.120   -22 31 27.90  .12106 1.0967 144.6 21.1 .767   4
2020 10 20 08  02 32 36.111   -22 28 33.83  .12076 1.0965 144.7 21.1 .774   4
2020 10 20 09  02 32 27.060   -22 25 38.76  .12047 1.0963 144.8 21.1 .781   5
2020 10 20 10  02 32 17.969   -22 22 42.68  .12018 1.0961 144.8 21.0 .788   5
2020 10 20 11  02 32 08.837   -22 19 45.59  .11989 1.0959 144.9 21.0 .795   6
2020 10 20 12  02 31 59.663   -22 16 47.48  .11959 1.0957 144.9 21.0 .802   6
2020 10 20 13  02 31 50.447   -22 13 48.33  .11930 1.0955 145.0 21.0 .809   6
2020 10 20 14  02 31 41.189   -22 10 48.15  .11901 1.0953 145.1 21.0 .816   7
2020 10 20 15  02 31 31.889   -22 07 46.93  .11872 1.0951 145.1 21.0 .823   7
2020 10 20 16  02 31 22.547   -22 04 44.66  .11842 1.0949 145.2 21.0 .830   8
2020 10 20 17  02 31 13.163   -22 01 41.34  .11813 1.0947 145.2 21.0 .837   8
2020 10 20 18  02 31 03.735   -21 58 36.95  .11784 1.0945 145.3 21.0 .844   9
2020 10 20 19  02 30 54.265   -21 55 31.49  .11755 1.0943 145.4 21.0 .851   9
2020 10 20 20  02 30 44.751   -21 52 24.95  .11726 1.0941 145.4 21.0 .859  10
2020 10 20 21  02 30 35.194   -21 49 17.32  .11697 1.0939 145.5 21.0 .866  10
2020 10 20 22  02 30 25.593   -21 46 08.61  .11668 1.0937 145.5 21.0 .873  11
2020 10 20 23  02 30 15.948   -21 42 58.79  .11639 1.0935 145.6 21.0 .880  11
2020 10 21 00  02 30 06.259   -21 39 47.87  .11610 1.0933 145.7 20.9 .888  12
2020 10 21 01  02 29 56.526   -21 36 35.83  .11581 1.0931 145.7 20.9 .895  13
2020 10 21 02  02 29 46.749   -21 33 22.67  .11552 1.0929 145.8 20.9 .903  13
2020 10 21 03  02 29 36.926   -21 30 08.38  .11523 1.0927 145.9 20.9 .910  14
2020 10 21 04  02 29 27.058   -21 26 52.96  .11494 1.0925 145.9 20.9 .918  14
2020 10 21 05  02 29 17.146   -21 23 36.39  .11465 1.0924 146.0 20.9 .925  15
2020 10 21 06  02 29 07.187   -21 20 18.66  .11436 1.0922 146.0 20.9 .933  15
2020 10 21 07  02 28 57.183   -21 16 59.77  .11407 1.0920 146.1 20.9 .940  16
2020 10 21 08  02 28 47.133   -21 13 39.72  .11378 1.0918 146.2 20.9 .948  17
2020 10 21 09  02 28 37.037   -21 10 18.49  .11349 1.0916 146.2 20.9 .956  17
2020 10 21 10  02 28 26.894   -21 06 56.07  .11321 1.0914 146.3 20.9 .964  18
2020 10 21 11  02 28 16.704   -21 03 32.46  .11292 1.0912 146.4 20.9 .972  18
2020 10 21 12  02 28 06.468   -21 00 07.65  .11263 1.0910 146.4 20.9 .980  19
2020 10 21 13  02 27 56.184   -20 56 41.63  .11234 1.0908 146.5 20.9 .988  20